Location: Huntsville
(34.7300°N, 86.5860°W)
Time: 11:07:24
(UTC-05:00)

N. Korean satellite - Visible Passes

Search period start: 22 March 2019 00:00
Search period end: 01 April 2019 00:00
Orbit: 456 x 510 km, 97.2° (Epoch: 22 March)

Date Brightness Start Highest point End Pass type
(mag) Time Alt. Az. Time Alt. Az. Time Alt. Az.
22 Mar 9.9 06:01:42 10° ENE 06:03:53 15° E 06:06:05 10° SE visible
26 Mar 10.0 05:56:12 10° ENE 05:57:59 13° E 05:59:47 10° SE visible
30 Mar 10.3 05:50:52 10° ENE 05:52:02 11° E 05:53:12 10° ESE visible
